[[{"header":{"parameterUnit":"m.s-1","parameterCategory":1,"la1":30.2991,"la2":30.254,"lo1":-89.0895,"lo2":-89.0444,"dy":0.0017,"dx":0.0017,"nx":28,"ny":28,"refTime":"2024-02-19T09:00:00:Z","depth":0,"parameterNumber":2,"parameterNumberName":"U-component_of_WINDS"},"data":[0,0,0,0,0,0,0,0,0,0,0,0,0,0,0,0,0,0,0,0,0,0,0,0,0,0,0,0,0,0,0,0,0,0,0,0,0,0,0,0,0,0,0,0,0,0,0,0,0,0,0,0,0,0,0,0,0,0,3.0723,3.0724,0,3.0826,3.0827,3.0829,3.0765,3.0761,3.0758,3.0756,3.086,3.0866,3.0871,0,0,0,0,0,0,0,0,0,0,0,0,0,3.0466,3.0471,3.0723,3.0724,3.0726,3.0826,3.0827,3.0829,3.0765,3.0761,3.0758,3.0754,3.0858,3.0865,3.0872,0,0,0,0,0,0,0,0,0,0,0,0,0,3.0574,3.0473,3.0723,3.0706,3.0705,3.0826,3.0828,3.0829,3.0766,3.0761,3.0757,3.0753,3.0856,3.0864,3.0873,3.1015,0,0,3.0898,3.0902,0,0,0,0,0,0,0,0,3.0568,3.0584,3.0707,3.0707,3.0707,3.0778,3.0775,3.0892,3.0767,3.0743,3.0756,3.075,3.0836,3.0846,3.0876,3.102,3.1025,3.0899,3.0904,3.0908,3.091,0,0,0,0,0,0,0,3.0561,3.0579,3.0764,3.0709,3.0709,3.0692,3.0702,3.0797,3.0814,3.0745,3.074,3.0753,3.0836,3.0868,3.0877,3.1026,3.0899,3.0906,3.0912,3.0915,3.1287,3.1292,0,0,0,0,0,0,3.0555,3.0573,3.076,3.0767,3.0625,3.07,3.0711,3.076,3.0813,3.0816,3.0757,3.075,3.0855,3.0868,3.0881,3.1048,3.0908,3.0916,3.092,3.1282,3.1288,3.1293,0,0,0,0,0,0,3.055,3.0572,3.0756,3.0669,3.0691,3.0709,3.0764,3.0764,3.0796,3.0822,3.0824,3.0787,3.0852,3.0869,3.0981,3.105,3.0919,3.0927,3.1277,3.1284,3.1291,3.1385,0,0,0,0,0,0,3.0543,3.0571,3.0627,3.0671,3.0696,3.0857,3.0768,3.0769,3.0811,3.0802,3.0851,3.0854,3.085,3.0969,3.099,3.106,3.0934,3.127,3.128,3.1289,3.1375,3.1394,3.141,0,0,0,0,0,3.0534,3.065,3.063,3.0653,3.0766,3.0861,3.0875,3.0868,3.0817,3.0872,3.0887,3.0853,3.104,3.0981,3.1004,3.1077,3.1266,3.1277,3.1288,3.1368,3.139,3.141,0,0,0,0,0,0,3.0615,3.0656,3.0634,3.0768,3.0811,3.085,3.0919,3.0894,3.0952,3.0942,3.093,3.0942,3.1058,3.1079,3.1013,3.1215,3.1144,3.116,3.1197,3.1219,3.1236,3.1228,3.0941,0,0,0,0,0,3.0648,3.0723,3.0754,3.0869,3.0892,3.0902,3.0943,3.0933,3.0978,3.0996,3.102,3.1064,3.1131,3.1177,3.1241,3.1378,3.1385,3.1439,3.1457,3.1471,3.1485,3.1554,3.1577,3.1329,3.1329,3.1329,0,0,3.0718,3.075,3.0798,3.0886,3.0919,3.0994,3.0918,3.1002,3.1057,3.1008,3.1115,3.1134,3.1181,3.1305,3.1361,3.1326,3.1554,3.1485,3.1496,3.1502,3.1567,3.1591,3.1611,3.1337,3.1335,3.1334,0,0,3.0884,3.0916,3.1014,3.1047,3.1096,3.1101,3.1125,3.1167,3.1177,3.1283,3.1247,3.1311,3.143,3.1464,3.1497,3.167,3.1639,3.1691,3.1782,3.185,3.1869,3.1886,3.1944,3.1966,3.1705,3.1705,3.1705,0,3.0964,3.1077,3.1067,3.1153,3.1191,3.1149,3.1246,3.1278,3.1346,3.1373,3.1333,3.1477,3.1507,3.1636,3.1677,3.1707,3.173,3.1685,3.1867,3.1884,3.19,3.1955,3.1978,3.1711,3.171,3.171,3.1709,0,3.1172,3.1251,3.1323,3.1388,3.1435,3.1526,3.1527,3.1575,3.156,3.1569,3.1675,3.1708,3.1776,3.1806,3.1794,3.1932,3.1909,3.1869,3.1797,3.193,3.1981,3.2003,3.1719,3.1717,3.1715,3.1714,0,0,3.1394,3.1449,3.1476,3.1502,3.1552,3.1611,3.1698,3.1764,3.1804,3.1851,3.1922,3.2021,3.1982,3.202,3.201,3.207,3.2199,3.2021,3.2022,3.2051,3.2349,3.2378,3.2403,3.2179,3.2183,3.2186,3.2344,0,3.156,3.1712,3.1703,3.1846,3.1915,3.1875,3.195,3.1987,3.1996,3.2055,3.2065,3.2134,3.208,3.2102,3.2159,3.2172,3.2259,3.216,3.2242,3.2245,3.223,3.243,3.2462,3.2609,3.2365,3.2368,3.2371,0,3.1775,3.1827,3.1976,3.201,3.2039,3.2107,3.2164,3.2223,3.2262,3.2264,3.2304,3.2283,3.2368,3.2294,3.2409,3.2342,3.2375,3.2386,3.2391,3.2397,3.2315,3.2439,3.2657,3.2678,3.2403,3.24,3.2398,0,3.1917,3.2026,3.2127,3.2152,3.2196,3.2243,3.2264,3.2299,3.2337,3.2387,3.2411,3.247,3.2502,3.2547,3.2542,3.249,3.2657,3.2585,3.2659,3.2659,3.2696,3.2693,3.2919,3.2721,3.272,3.272,3.2719,0,3.2103,3.2195,3.2191,3.2254,3.2354,3.2342,3.2441,3.2455,3.2486,3.2549,3.2517,3.2577,3.2566,3.2625,3.2621,3.2714,3.273,3.2732,3.273,3.2734,3.2733,3.2754,3.2743,3.2726,3.2724,3.2723,3.2722,0,3.2279,3.2281,3.2389,3.242,3.2429,3.2502,3.2527,3.2585,3.259,3.2669,3.2687,3.2695,3.2762,3.2761,3.2838,3.2834,3.2948,3.2935,3.2935,3.2931,3.3004,3.2996,3.325,3.3281,3.3065,3.3067,3.3069,0,3.2397,3.2466,3.2503,3.2543,3.2565,3.263,3.2668,3.2657,3.2698,3.2745,3.2796,3.286,3.291,3.3018,3.303,3.3087,3.3073,3.3158,3.3082,3.3082,3.3071,3.3066,3.3071,3.3173,3.3175,3.3177,3.3179,0,3.2604,3.26,3.2657,3.2712,3.2758,3.2802,3.2842,3.2876,3.2869,3.2916,3.2983,3.3022,3.3098,3.316,3.3214,3.3233,3.3204,3.3202,3.3222,3.3226,3.3222,3.3222,3.2973,3.3197,3.3195,3.3194,3.3193,3.3192,3.2753,3.281,3.2844,3.2907,3.2935,3.2972,3.3026,3.3037,3.3093,3.3153,3.3143,3.3217,3.325,3.332,3.3343,3.3399,3.3369,3.3399,3.3406,3.3412,3.3419,3.3214,3.3409,3.3409,3.3408,3.3408,3.3408,0,3.2955,3.2974,3.3031,3.3087,3.3135,3.3103,3.3144,3.3186,3.3252,3.3285,3.3334,3.3409,3.3468,3.3483,3.3539,3.3581,3.3569,3.3596,3.3592,3.3595,3.3444,3.342,3.3604,3.3604,3.3604,3.3604,3.3604,3.3604,3.3066,3.316,3.316,3.3267,3.3284,3.3356,3.3382,3.3414,3.344,3.3525,3.3574,3.3583,3.3607,3.3664,3.3716,3.3718,3.3739,3.3771,3.3768,3.3626,3.3607,3.3588,3.3565,3.3776,3.3777,3.3914,3.3915,3.3916]},{"header":{"parameterUnit":"m.s-1","parameterCategory":1,"la1":30.2991,"la2":30.254,"lo1":-89.0895,"lo2":-89.0444,"dy":0.0017,"dx":0.0017,"nx":28,"ny":28,"refTime":"2024-02-19T09:00:00:Z","depth":0,"parameterNumber":3,"parameterNumberName":"V-component_of_WINDS"},"data":[0,0,0,0,0,0,0,0,0,0,0,0,0,0,0,0,0,0,0,0,0,0,0,0,0,0,0,0,0,0,0,0,0,0,0,0,0,0,0,0,0,0,0,0,0,0,0,0,0,0,0,0,0,0,0,0,0,0,0.8721,0.872,0,0.864,0.8639,0.8638,0.856,0.8559,0.8557,0.8557,0.8473,0.8472,0.8471,0,0,0,0,0,0,0,0,0,0,0,0,0,0.8805,0.8804,0.8721,0.872,0.8719,0.864,0.8639,0.8638,0.856,0.8558,0.8557,0.8556,0.8473,0.8472,0.847,0,0,0,0,0,0,0,0,0,0,0,0,0,0.8751,0.8804,0.8721,0.8671,0.8665,0.864,0.8639,0.8638,0.856,0.8558,0.8557,0.8555,0.8474,0.8472,0.847,0.8489,0,0,0.8464,0.8464,0,0,0,0,0,0,0,0,0.8754,0.8748,0.8679,0.8674,0.8668,0.8608,0.8638,0.8588,0.856,0.86,0.8557,0.8555,0.8519,0.8514,0.8502,0.8485,0.8481,0.8464,0.8463,0.8462,0.8462,0,0,0,0,0,0,0,0.8758,0.8751,0.8689,0.8678,0.8671,0.8651,0.8642,0.8628,0.8569,0.8596,0.859,0.8582,0.8516,0.8504,0.8499,0.848,0.8464,0.8463,0.8461,0.8461,0.847,0.8472,0,0,0,0,0,0,0.877,0.8755,0.8692,0.8687,0.8708,0.8651,0.864,0.8629,0.8569,0.8558,0.8583,0.8579,0.8508,0.8501,0.8496,0.8511,0.8462,0.846,0.8459,0.8469,0.8471,0.8472,0,0,0,0,0,0,0.8772,0.8765,0.8695,0.8719,0.8708,0.8651,0.8639,0.8628,0.8616,0.8559,0.8548,0.8582,0.8506,0.8499,0.849,0.8507,0.846,0.8458,0.8467,0.8469,0.8471,0.8543,0,0,0,0,0,0,0.8775,0.8766,0.8774,0.872,0.8708,0.8692,0.864,0.8628,0.8613,0.8606,0.8555,0.8545,0.8504,0.8494,0.8488,0.8504,0.8456,0.8466,0.8468,0.8471,0.8539,0.8548,0.8555,0,0,0,0,0,0.8778,0.8798,0.8774,0.8767,0.8716,0.8693,0.8686,0.8639,0.8615,0.8621,0.8584,0.8547,0.8506,0.8493,0.8487,0.8502,0.8464,0.8467,0.8471,0.8536,0.8546,0.8555,0,0,0,0,0,0,0.8856,0.879,0.8763,0.8766,0.8736,0.868,0.8686,0.8652,0.8628,0.8622,0.8565,0.8554,0.8552,0.8526,0.8513,0.8515,0.848,0.8482,0.8532,0.8541,0.8549,0.8554,0.8455,0,0,0,0,0,0.8873,0.8861,0.8804,0.8812,0.8798,0.8745,0.8733,0.87,0.8666,0.8652,0.8615,0.8583,0.8562,0.855,0.8529,0.8535,0.8521,0.8542,0.855,0.8556,0.8559,0.8556,0.8564,0.8483,0.8483,0.8482,0,0,0.8909,0.8872,0.8868,0.8826,0.8799,0.8786,0.8735,0.8724,0.8714,0.8651,0.864,0.8611,0.8571,0.857,0.8567,0.8548,0.8578,0.856,0.8566,0.8565,0.8561,0.8568,0.8575,0.8485,0.8484,0.8484,0,0,0.8968,0.8939,0.8941,0.8914,0.8873,0.8837,0.8837,0.8786,0.8764,0.8752,0.8704,0.869,0.8657,0.863,0.8612,0.8657,0.862,0.8651,0.8692,0.8691,0.8697,0.8702,0.8716,0.8722,0.8654,0.8654,0.8654,0,0.9017,0.8997,0.8947,0.8938,0.892,0.8862,0.8863,0.8839,0.8793,0.8781,0.8761,0.8715,0.8685,0.8674,0.8685,0.8673,0.867,0.8657,0.87,0.8705,0.8709,0.8721,0.8727,0.8658,0.8657,0.8657,0.8656,0,0.9059,0.9045,0.9052,0.9008,0.8991,0.8987,0.8935,0.8923,0.8891,0.8857,0.8844,0.8804,0.8772,0.8767,0.8736,0.8751,0.874,0.8711,0.8675,0.8722,0.8732,0.8737,0.8663,0.8662,0.8661,0.866,0,0,0.9165,0.9091,0.9095,0.9072,0.9021,0.9009,0.9002,0.897,0.896,0.893,0.892,0.8892,0.8863,0.8843,0.8807,0.8806,0.8841,0.8776,0.8774,0.8788,0.8852,0.8873,0.888,0.8817,0.8818,0.8818,0.8855,0,0.9213,0.9197,0.915,0.9147,0.9133,0.9076,0.9069,0.9036,0.9003,0.8985,0.8948,0.8928,0.8893,0.888,0.8877,0.8838,0.8853,0.8835,0.8806,0.8805,0.8816,0.8886,0.8909,0.8945,0.8859,0.8859,0.886,0,0.9268,0.924,0.9236,0.9182,0.9174,0.9169,0.9134,0.9118,0.9079,0.9055,0.903,0.899,0.8977,0.8944,0.8923,0.8912,0.8897,0.8876,0.8876,0.887,0.8835,0.888,0.8956,0.8961,0.8866,0.8866,0.8865,0,0.9343,0.9304,0.9296,0.9279,0.9217,0.9214,0.9188,0.9147,0.913,0.91,0.9087,0.9056,0.9039,0.9014,0.8966,0.8947,0.895,0.8913,0.8927,0.8929,0.893,0.893,0.9003,0.8924,0.8923,0.8923,0.8923,0,0.9401,0.94,0.9328,0.9323,0.9319,0.9265,0.9262,0.923,0.9194,0.918,0.9129,0.9117,0.9055,0.9035,0.8997,0.8984,0.8977,0.8955,0.8945,0.8959,0.8962,0.8948,0.8943,0.8925,0.8924,0.8924,0.8924,0,0.9483,0.9436,0.9422,0.9364,0.935,0.9349,0.9299,0.929,0.9254,0.9237,0.923,0.9172,0.9146,0.9095,0.9055,0.9029,0.9024,0.9007,0.9037,0.903,0.9046,0.9045,0.9111,0.9116,0.9036,0.9037,0.9038,0,0.9523,0.952,0.9462,0.9449,0.9425,0.9405,0.9387,0.9333,0.9315,0.9268,0.9265,0.9235,0.9207,0.9167,0.9121,0.9089,0.9069,0.9095,0.9064,0.9077,0.9067,0.9067,0.9065,0.9101,0.9103,0.9104,0.9104,0,0.9597,0.9573,0.9549,0.9516,0.9496,0.9468,0.9436,0.9428,0.9366,0.9349,0.9322,0.93,0.9258,0.9227,0.9188,0.9159,0.9121,0.9114,0.9115,0.9129,0.9146,0.9134,0.9054,0.9113,0.9112,0.9111,0.9111,0.9111,0.9657,0.9651,0.9608,0.9583,0.9554,0.9525,0.9513,0.9475,0.9451,0.9413,0.9382,0.9356,0.9313,0.9256,0.9229,0.9207,0.9189,0.9191,0.9191,0.9192,0.9197,0.9151,0.92,0.9199,0.9199,0.9199,0.9198,0,0.9726,0.9696,0.9673,0.963,0.9609,0.9575,0.9538,0.9523,0.9501,0.9464,0.9438,0.9404,0.9374,0.9324,0.9289,0.928,0.9261,0.9273,0.9272,0.9265,0.9216,0.9218,0.9288,0.9288,0.9288,0.9288,0.9288,0.9288,0.976,0.9747,0.9718,0.9689,0.9658,0.9633,0.9614,0.9586,0.9557,0.9522,0.9496,0.9464,0.9421,0.9382,0.9351,0.9337,0.9326,0.9342,0.9322,0.9277,0.9269,0.9261,0.9262,0.9341,0.9341,0.9373,0.9373,0.9373]}]]